#timestamp,LO_Frequency,Hit,StdDev 
1629043215.1,286046998.9,N
1629043216.0,286046998.9,N
1629043235.8,286047000.8,N
1629043255.7,286047000.5,N
1629043275.5,286046999.7,N
1629043295.4,286047002.1,N
1629043315.2,286047002.6,N
1629043335.0,286047002.4,N
1629043335.9,286047002.4,N
1629043355.8,286046999.7,N
1629043375.6,286047000.0,N
1629043395.4,286046999.9,N
1629043415.3,286047001.5,N
1629043435.1,286047001.9,N
1629043455.9,286047002.5,N
1629043475.7,286047001.8,N
1629043495.5,286047004.0,N
1629043515.4,286047004.1,N
1629043535.2,286047005.8,N
1629043555.0,286047005.5,N
1629043555.9,286047005.5,N
1629043575.8,286047005.2,N
1629043595.6,286047005.7,N
1629043615.5,286047005.5,N
1629043635.3,286047004.8,N
1629043655.1,286047003.1,N
1629043675.9,286047005.9,N
1629043695.7,286047003.6,N
1629043715.5,286047001.8,N
1629043735.4,286047003.9,N
1629043755.2,286047004.0,N
1629043775.0,286047002.2,N
1629043776.0,286047002.2,N
1629043795.8,286047002.5,N
1629043815.6,286047002.0,N
1629043835.5,286047001.9,N
1629043855.6,286047001.6,N
1629043875.4,286047002.1,N
1629043895.3,286047000.4,N
1629043915.1,286047000.0,N
1629043916.0,286047000.0,N
1629043935.8,286047002.2,N
1629043955.7,286047002.0,N
1629043975.5,286047002.5,N
1629043995.3,286047001.6,N
1629044015.2,286047002.0,N
1629044035.0,286047004.0,N
1629044035.9,286047004.0,N
1629044055.8,286047001.8,N
1629044075.6,286047002.0,N
1629044095.4,286047001.7,N
1629044115.3,286047001.6,N
1629044135.1,286047001.5,N
1629044155.8,286047004.4,Y
1629044175.7,286047001.2,P
1629044195.5,286046998.5,N
1629044215.4,286046998.4,N
1629044235.2,286047001.0,N
1629044255.0,286047000.7,N
1629044255.9,286047000.7,N
1629044275.8,286046999.3,N
1629044295.6,286046998.4,N
1629044315.4,286046999.1,N
1629044335.3,286046999.1,N
1629044355.1,286046998.9,N
1629044375.9,286047001.1,N
1629044395.7,286047000.8,N
1629044415.5,286046998.4,N
1629044435.4,286046998.3,N
1629044455.2,286046999.4,N
1629044475.0,286046999.4,N
1629044506.0,286047001.1,E
1629044515.9,286046999.3,N
1629044535.7,286046999.2,P
1629044555.6,286046996.9,P
1629044575.4,286046996.5,Y
1629044595.3,286047000.8,P
1629044615.1,286046998.4,N
1629044616.0,286046998.4,N
1629044635.8,286047000.3,N
1629044655.7,286047002.7,N
1629044675.5,286047001.8,N
1629044695.3,286047002.2,N
1629044715.2,286047004.4,N
1629044735.0,286047001.8,N
1629044735.9,286047001.8,N
1629044755.8,286047001.7,N
1629044775.6,286047001.9,N
1629044795.4,286047003.2,N
1629044815.3,286047004.0,N
1629044835.1,286047000.3,N
1629044855.8,286047001.2,N
1629044875.7,286047000.9,N
1629044895.5,286046998.3,N
1629044915.4,286047001.1,N
1629044935.2,286046998.5,N
1629044955.0,286047000.8,N
1629044955.9,286047000.8,N
1629044975.8,286046998.7,N
1629044995.6,286046996.6,N
1629045015.4,286046997.5,N
1629045035.3,286046994.9,N
1629045055.1,286046996.7,N
1629045075.9,286046997.1,N
1629045095.7,286046997.4,N
1629045115.5,286046995.3,N
1629045135.4,286046994.9,N
1629045155.2,286046997.1,N
1629045175.0,286046997.5,N
1629045175.9,286046997.5,N
1629045195.8,286046995.2,N
1629045215.6,286046996.8,N
1629045235.5,286046996.7,N
1629045255.3,286046997.6,N
1629045275.1,286046995.2,N
1629045295.9,286046997.7,N
1629045315.7,286046997.7,N
1629045335.5,286046999.0,N
1629045355.4,286046999.0,N
1629045375.2,286046997.0,N
1629045395.1,286046998.8,N
1629045396.0,286046998.8,N
1629045415.8,286046998.8,N
1629045435.6,286047000.7,N
1629045455.5,286046999.0,N
1629045475.3,286046998.8,N
1629045495.1,286047000.8,N
1629045515.9,286047001.2,N
1629045535.7,286046998.7,N
1629045555.6,286047001.1,N
1629045575.4,286046998.2,N
1629045595.2,286046998.2,N
1629045615.1,286046999.0,N
1629045616.0,286046999.0,N
1629045635.8,286046998.9,N
1629045655.6,286046999.4,N
1629045675.5,286046998.8,N
1629045695.3,286046999.2,N
1629045715.2,286046999.3,N
1629045735.9,286046998.5,N
1629045755.7,286047000.5,N
1629045775.6,286047001.1,N
1629045795.4,286047000.9,N
1629045815.2,286046999.4,N
1629045835.1,286046999.5,N
1629045836.0,286046999.5,N
1629045855.8,286046996.5,Y
1629045875.7,286047000.5,P
1629045895.5,286047000.0,N
1629045915.3,286047000.9,N
1629045935.2,286047000.8,N
1629045955.0,286046998.6,N
1629045955.9,286046998.6,N
1629045975.8,286046998.2,N
1629045995.6,286047000.9,N
1629046015.4,286046998.3,N
1629046035.3,286046999.5,N
1629046055.1,286046996.7,Y
1629046075.8,286046999.1,P
1629046095.7,286046998.6,P
1629046115.5,286047000.5,N
1629046135.3,286046998.1,N
1629046155.2,286046998.7,N
1629046175.0,286046998.2,N
1629046175.9,286046998.2,N
1629046195.8,286046998.2,N
1629046215.6,286046998.8,N
1629046235.4,286046998.4,N
1629046255.3,286046998.5,N
1629046275.1,286046998.8,N
1629046295.8,286046998.4,N
1629046315.7,286046998.2,N
1629046335.5,286046998.1,Y
1629046355.4,286047000.3,P
1629046375.2,286047000.8,N
1629046395.0,286046999.0,N
1629046395.9,286046999.0,N
1629046415.8,286046998.1,N
1629046435.6,286046998.6,N
1629046455.5,286047001.0,N
1629046475.3,286047000.0,N
1629046495.1,286047000.2,N
1629046515.9,286047002.5,N
1629046535.7,286047000.3,N
1629046555.5,286047000.9,N
1629046575.4,286047000.6,N
1629046595.2,286046999.8,N
1629046615.1,286047000.4,N
1629046616.0,286047000.4,N
1629046635.8,286047000.1,N
1629046655.6,286046999.7,N
1629046675.5,286046999.9,N
1629046695.3,286046999.9,N
1629046715.1,286047000.8,N
1629046735.9,286046998.8,N
1629046755.7,286046999.1,N
1629046775.6,286046998.1,N
1629046795.4,286047001.0,N
